Home > Weather > Güssing > Past weeks

Flag for Austria Past Weather in Güssing, Burgenland, Austria — Yesterday and Last 2 Weeks

Now
78 °F

Warm.


Feels Like: 80 °F
Forecast: 59 / 67 °F
Wind: 3 mph from Northeast

Location: Murska Sobota

Current Time: Jun 26, 2016 at 2:00:24 PM

Latest Report: Jun 26, 2016 at 12:00 PM


Visibility: N/A

Pressure: 29.99 "Hg

Humidity: 62%

Dew Point: 64 °F

Location of GüssingLocation

Past Weather in Güssing — Graph

°F

Güssing Temperature Yesterday

Maximum temperature yesterday: 89 °F (at 3:00 PM)
Minimum temperature yesterday: 68 °F (at 10:00 PM)
Average temperature yesterday: 76 °F

High & Low Weather Summary for the Past Weeks

 TemperatureHumidityPressure
High91 °F (Jun 24, 4:00 PM)100% (Jun 21, 7:00 AM)30.26 "Hg (Jun 21, 7:00 AM)
Low53 °F (Jun 18, 5:00 AM)33% (Jun 17, 2:00 PM)29.53 "Hg (Jun 14, 5:00 PM)
Average69 °F76%29.92 "Hg
* Reported Jun 11 12:00 PM — Jun 26 12:00 PM, Güssing, Weather by CustomWeather, © 2016

Note: Actual official high and low records may vary slightly from our data, if they occured in-between our weather recording intervals... More about our weather records

Advertising

Güssing Weather History for the Previous 24 Hours

Scroll right to see more
 ConditionsComfort  
Time TempWeatherWind HumidityBarometerVisibility
12:00 PM
Sun, Jun 26
78 °FWarm.3 mph62%29.99 "HgN/A
11:00 AM77 °FWarm.2 mph72%29.99 "HgN/A
10:00 AM73 °FMild.1 mph78%30.00 "HgN/A
9:00 AM72 °FMild.2 mph80%29.99 "HgN/A
8:00 AM71 °FMild.1 mph83%29.98 "HgN/A
7:00 AM67 °FMild.2 mph95%29.98 "HgN/A
6:00 AM65 °FMild.2 mph97%29.97 "HgN/A
5:00 AM65 °FMild.2 mph97%29.96 "HgN/A
4:00 AM66 °FMild.1 mph96%29.95 "HgN/A
3:00 AM66 °FMild.3 mph96%29.91 "HgN/A
2:00 AM66 °FMild.3 mph95%29.93 "HgN/A
1:00 AM66 °FMild.2 mph96%29.92 "HgN/A
12:00 AM66 °FMild.1 mph95%29.93 "HgN/A
11:00 PM
Sat, Jun 25
N/A1 mphN/AN/AN/A
10:00 PM68 °FMild.2 mph95%29.88 "HgN/A
9:00 PM68 °FMild.2 mph94%29.85 "HgN/A
8:00 PM69 °FMild.No wind89%29.87 "HgN/A
7:00 PM71 °FMild.5 mph81%29.91 "HgN/A
6:00 PM84 °FWarm.1 mph60%29.82 "HgN/A
5:00 PMN/A2 mphN/AN/AN/A
4:00 PM89 °FHot.3 mph47%29.83 "HgN/A
3:00 PM89 °FHot.3 mph52%29.84 "HgN/A
2:00 PM88 °FHot.3 mph51%29.86 "HgN/A
Weather by CustomWeather, © 2016

See weather overviewHow to use our weather pages